PEGASUS DEB

Satellite information

Favourite Embed

Satellite Type and Status

DEBRISIN ORBIT

Key statistics

Satellite PEGASUS DEB at a glance.

Uptime

11534

Days in orbit

Revolutions

≈ 15.2

Per day

Orbit

LEO

Low Earth Orbit

Inclination

81.9

Latest

Satellite identification and parameters

Extended collection of information and parameters for PEGASUS DEB.

Object identification

Identified? True

Debris? True

Object name: PEGASUS DEB

International designator: 1994-029AES

Object number (NORAD): 39307

Object ID (CCSDS): 39307

Country: UNITED STATES OF AMERICA (US)

Current information (Y/N): Y

RCS size: SMALL

Orbital parameters

Period: 94.837 minutes

Inclination: 81.9424 deg

SMA: 6888.824 km

Apoapsis: 572.443 km

Periapsis: 448.935 km

RAAN: 63.5833 deg

Eccentricy: 0.00896438

Argument of periapsis: 26.5533 deg

Mean anomaly: 334.0249 deg

Mean motion: 15.18396188 rev/day

Mean motion (dot): 0.00023059 rev/day2

B* drag term: 0.0010054219 1/REarth

Two-line elements (TLE)

Creation date: Dec. 15, 2025, 8:47 p.m.

Reference frame: TEME

Reference center: EARTH

Epoch: Dec. 15, 2025, 4:28 a.m. UTC

TLE line 0: 0 PEGASUS DEB

TLE line 1: 1 39307U 94029AES 25349.18623147 .00023059 00000-0 10054-2 0 9992

TLE line 2: 2 39307 81.9424 63.5833 0089644 26.5533 334.0249 15.18396188755513

Live tracking on map

Real-time ground track for satellite PEGASUS DEB.

In-orbit conjunctions

A list of the most updated potential collisions computed for object PEGASUS DEB.

Target Orbit TCA Probability of collision Miss distance Type
CZ-4C R/B SSO 2025-04-12 12:46:38 0.0001248313 907.0 (m) ROCKET BODY
CERISE SSO 2025-02-15 00:58:19 0.0003091154 409.0 (m) PAYLOAD

Associated space launch

PEGASUS DEB was lifted into orbit during the mission ‘Pegasus HAPS | Space Test Experiments Platform 2 (STEP-2)’, on board a Pegasus HAPS space rocket.

The launch took place on May 19, 1994, 5:03 p.m. from Edwards Air Force Base.

For more information about the launch, click the button.

Launch to space Pegasus HAPS | Space Test Experiments Platform 2 (STEP-2)
Pegasus HAPS | Space Test Experiments Platform 2 (STEP-2)

Agency: N/A

Status: Launch Successful

Launch date: May 19, 1994, 5:03 p.m. UTC

Rocket: Pegasus HAPS

Launch pad: Edwards Air Force Base

Location: Air launch to orbit

...

Latest news about this satellite

There are no fresh news available about this satellite. Check back as we update our databases every day.


Newsletter sign-up

Weekly statistics, charts and insights to help you stay on top of the space industry.